Regional Weather Roundup
Issued by NWS Goodland, KS

Home | Current Version | Previous Version | Text Only | Print | Product List | Glossary Off
Versions: 1 2 3 4 5 6 7 8 9 10 11 12 13 14 15 16 17 18 19 20 21 22 23 24 25 26 27 28 29 30 31 32 33 34 35 36 37 38 39 40 41 42 43 44 45 46 47 48 49 50

000
ASUS43 KGLD 230808
RWRGLD

GOODLAND FORECAST AREA HOURLY WEATHER ROUNDUP
NATIONAL WEATHER SERVICE GOODLAND KS
200 AM MDT WED JUL 23 2014

...OFFICIAL OBSERVATIONS...

CITY           SKY/WX    TMP DP  RH WIND       PRES   REMARKS
GOODLAND KS    CLEAR     70  68  93 E10       30.28F
HILL CITY KS   CLEAR     74  68  81 E8        30.21F
IMPERIAL NEB   MOCLDY    71  65  81 E9        30.28F
MCCOOK NEB     CLEAR     71  68  90 NE9       30.24F
AKRON CO       PTCLDY    68  61  78 SE13      30.32F
BURLINGTON CO  CLEAR     69  66  90 NE5       30.30S
LIMON CO       CLEAR     63  55  75 CALM      30.36S
$$

...UNOFFICIAL OBSERVATIONS...

CITY           SKY/WX    TMP DP  RH WIND       PRES   REMARKS
COLBY KS       CLEAR     73  70  88 E12       30.26F FOG
GOVE KS          N/A     74  32  21 MISG        N/A
LENORA KS        N/A     72  32  23 MISG        N/A
NORTON KS      CLEAR     72  64  78 CALM      30.22S
OBERLIN KS     FAIR      70  66  88 E5        30.22F
SHARON SPRINGS   N/A     69  64  85 S5          N/A
ST FRANCIS KS  CLEAR     70  63  78 E8        30.26F
TRIBUNE KS     CLEAR     66 N/A N/A CALM      30.28
WAKEENEY KS      N/A     73  67  80 MISG        N/A
KIT CARSON CO    N/A     71  59  66 CALM        N/A
YUMA CO          N/A     69  62  79 E10         N/A
$$


USA.gov is the U.S. government's official web portal to all federal, state and local government web resources and services.